Location: Giraud
(44.2333°N, 6.4167°E)
Time: 13:35:36
(UTC+00:00)

Daily predictions for brighter satellites

Satellite Brightness Start Highest point End
(mag) Time Altitude Azimuth Time Altitude Azimuth Time Altitude Azimuth
JB-3 4.5 19:35:09 10° NNE 19:39:16 64° E 19:43:24 10° S
USA 238 DEB 4.3 19:32:36 10° NW 19:39:52 65° WSW 19:47:27 10° SSE
USA 238 4.3 19:32:43 10° NW 19:39:59 65° WSW 19:47:35 10° SSE
EXPRESS MD2 4.0 19:35:03 10° WNW 19:42:14 74° NNE 19:45:48 10° ESE
Cosmos 1666 Rocket 3.9 19:39:17 10° NNW 19:43:41 72° W 19:48:06 10° S
Cosmos 1515 4.1 19:40:10 10° SSE 19:43:42 41° E 19:47:16 10° NNE
SPOT 1/Viking Rocket 4.0 19:40:41 10° SE 19:45:38 48° ENE 19:50:35 10° N
CZ-4B R/B 1.6 19:42:53 10° NNE 19:45:58 43° E 19:48:58 10° S
Meteor 1-27 Rocket 4.0 19:40:46 10° S 19:46:20 53° E 19:52:03 10° NNE
Resurs 1-3 3.8 19:42:00 10° S 19:46:22 74° WSW 19:50:47 10° NNW
CZ-4 R/B 4.3 19:46:37 10° WSW 19:48:43 14° W 19:50:51 10° WNW
Cosmos 1633 Rocket 3.3 19:47:32 10° NNW 19:51:55 72° W 19:56:14 10° S
Cosmos 2219 3.3 19:47:18 10° NNW 19:52:58 87° WSW 19:58:35 10° SSE
SJ 16-02 2.5 19:49:39 10° SSE 19:53:09 24° E 19:56:39 10° NE
H-2A R/B 4.0 19:49:29 10° SSW 19:53:31 36° W 19:57:28 10° NNW
OE (NEXTSAT) 4.2 19:50:27 10° WSW 19:53:42 58° SSE 19:56:58 10° ENE
Cosmos 1340 2.9 19:50:26 10° S 19:54:01 47° E 19:57:38 10° NNE
Cosmos 1315 Rocket 3.7 19:51:10 10° NNW 19:55:07 50° W 19:59:00 10° S
USA 186 4.2 19:56:37 10° WSW 19:57:44 12° W 19:58:49 10° WNW
OBJECT-B 3.8 19:58:53 10° WSW 19:59:40 11° W 20:00:28 10° WNW
Cosmos 2082 4.0 19:54:12 10° NNW 19:59:46 57° ENE 20:04:59 11° SE
Meteor 1-11 Rocket 3.9 19:55:01 10° N 20:01:02 88° ENE 20:06:59 10° S
ATLAS 5 CENTAUR R/B 4.4 19:59:24 10° SW 20:01:17 10° SW 20:02:53 10° SW
Cosmos 2263 Rocket 3.2 19:57:44 10° N 20:02:44 32° NE 20:07:29 11° ESE
Cosmos 1470 Rocket 3.5 19:58:57 10° N 20:03:18 88° ENE 20:07:36 10° S
Ariane Rocket 3.1 20:00:26 10° SSE 20:05:27 68° ENE 20:10:32 10° N
Cosmos 1743 2.7 20:02:44 10° N 20:06:31 66° E 20:10:11 10° SSE
OAO 3 Rocket 4.4 20:03:05 10° WSW 20:07:09 26° S 20:10:30 13° SE
SPOT 5 4.1 20:06:30 12° SE 20:10:42 31° ENE 20:15:10 10° N
BREEZE-M DEB (TANK) 3.7 20:08:15 10° W 20:10:59 32° NNW 20:13:00 10° NE
Terra 3.4 20:09:04 11° ESE 20:12:26 21° ENE 20:15:57 10° NNE
IRAS Rocket 4.2 20:07:07 10° NNE 20:12:46 79° ESE 20:18:24 10° SSW
Resurs 01 Rocket 1.8 20:09:49 10° S 20:14:13 76° W 20:18:38 10° NNW
Aureole 1 Rocket 2.4 20:12:50 10° SSW 20:16:04 70° WNW 20:19:03 10° NNE
Cosmos 1515 Rocket 3.6 20:12:22 10° S 20:16:44 84° W 20:21:10 10° N
Cosmos 2227 Rocket 3.0 20:15:27 10° NW 20:20:51 47° WSW 20:26:15 10° S
Cosmos 921 Rocket 3.1 20:17:39 10° NNW 20:22:10 68° ENE 20:25:38 16° SSE
SWAS 4.5 20:24:01 10° NNW 20:28:19 76° ENE 20:31:20 19° SSE
Cosmos 1980 Rocket 2.1 20:23:10 10° SSW 20:28:47 81° ESE 20:34:29 10° NNE
CARTOSAT-1 3.5 20:26:14 16° SSE 20:29:40 73° ENE 20:33:59 10° N
Cosmos 1869 Rocket 3.9 20:27:15 10° N 20:31:38 50° ENE 20:34:33 20° SSE
Cosmos 2228 Rocket 3.5 20:29:01 16° SSE 20:32:26 45° E 20:36:47 10° NNE
Cosmos 1464 Rocket 4.1 20:27:16 10° S 20:33:28 79° W 20:39:39 10° N
Cosmos 1378 4.0 20:34:32 23° SE 20:36:02 32° E 20:39:19 10° NNE
Cosmos 2344 3.5 20:29:29 10° SW 20:37:04 89° NW 20:44:44 10° NE
Cosmos 2322 Rocket 3.6 20:36:17 17° ESE 20:37:41 18° E 20:41:23 10° ENE
Cosmos 1777 Rocket 4.1 20:33:02 10° S 20:38:05 53° ESE 20:43:11 10° NNE
Cosmos 2369 3.9 20:32:51 10° SSW 20:38:29 76° WNW 20:44:11 10° NNE
ISS -2.8 20:35:54 10° NW 20:39:09 43° NNE 20:41:27 17° E
Spot 2 Rocket 3.7 20:35:42 19° SE 20:39:10 55° ENE 20:44:05 10° N
Cosmos 1354 Rocket 4.0 20:34:01 10° SSW 20:39:17 87° ESE 20:44:38 10° NNE
SPOT 3 Rocket 3.5 20:36:10 16° SSE 20:40:20 88° ENE 20:45:31 10° NNW
ATLAS 2AS CENTAUR R/B 2.9 20:33:55 10° SSW 20:41:41 72° ESE 20:49:15 10° NE
Cosmos 773 Rocket 4.0 20:36:37 10° NNW 20:41:51 75° ENE 20:45:19 21° SSE
Cosmos 1536 4.1 20:38:17 10° NNW 20:42:03 39° W 20:45:48 10° SSW
Okean 1 3.2 20:40:11 13° S 20:43:43 85° E 20:47:46 10° N
Meteor 2-4 Rocket 4.2 20:40:22 18° SSE 20:44:11 42° E 20:49:29 10° NNE
Meteor 1-19 Rocket 4.1 20:40:22 10° S 20:45:48 80° E 20:51:13 10° NNE
H-2A R/B 4.4 20:43:19 10° NNW 20:46:36 24° WNW 20:49:54 10° WSW
RESURS DK-1 2.2 20:43:35 10° SSW 20:47:41 75° ESE 20:51:49 10° NNE
USA 245 4.5 20:42:54 16° SSE 20:47:44 85° WSW 20:54:10 10° NNW
Cosmos 1697 Rocket 4.2 20:42:34 10° SW 20:47:52 40° WNW 20:53:12 10° NNE
Cosmos 1092 Rocket 4.1 20:41:54 10° N 20:48:00 59° ENE 20:52:05 21° SSE
Nadezhda 4 Rocket 4.1 20:42:35 10° N 20:48:50 80° W 20:54:08 14° S
SL-4 R/B 3.3 20:46:03 10° WNW 20:50:05 32° SW 20:52:09 21° S
Meteor 2-14 Rocket 4.4 20:45:42 10° N 20:51:48 88° W 20:56:34 17° S
Cosmos 1634 Rocket 4.2 20:49:58 20° SSE 20:54:12 51° E 21:00:10 10° NNE
ARIANE 5 R/B 3.4 20:53:39 24° ESE 20:55:46 40° ENE 20:59:59 10° N
Cosmos 1707 Rocket 4.0 20:54:13 27° SE 20:56:09 43° E 21:00:19 10° NNE
ATLAS CENTAUR R/B 4.2 20:54:31 10° N 20:57:08 14° NNE 20:59:42 10° ENE
Cosmos 44 Rocket 3.5 20:54:21 10° NNW 20:59:01 56° NE 21:01:28 26° ESE
Cosmos 2227 4.4 20:59:03 10° NNW 21:04:47 63° ENE 21:07:59 27° SE
Cosmos 158 Rocket 4.0 21:01:33 10° NNW 21:06:42 72° ENE 21:09:24 29° SSE
NOSS 2-1 (E) 3.1 21:08:10 43° ESE 21:08:10 43° ESE 21:11:06 10° NE
Meteor 2-9 Rocket 4.5 21:02:24 10° NNW 21:08:07 67° W 21:12:06 20° S
ATLAS 3B R/B 3.3 21:00:54 10° NNW 21:08:07 56° NE 21:13:24 20° ESE
USA 81 4.1 21:09:00 27° SSE 21:11:46 61° E 21:16:59 10° NNE
Cosmos 1975 2.8 21:07:57 10° N 21:12:02 78° E 21:13:33 37° SSE
Cosmos 2026 Rocket 3.9 21:07:06 10° N 21:13:17 79° E 21:17:01 26° SSE
ERS-1 Rocket 3.0 21:12:32 27° S 21:15:19 83° WSW 21:20:23 10° NNW
SL-16 R/B 2.3 21:13:28 25° S 21:16:35 52° ESE 21:22:06 10° NE
Meteor 1-4 Rocket 3.9 21:16:23 10° NNE 21:19:17 24° ENE 21:19:36 24° E
Helios 1A Rocket 3.7 21:19:01 24° SSW 21:21:01 44° W 21:24:52 10° NNW
Cosmos 1538 Rocket 4.0 21:16:50 10° NNW 21:22:05 69° ENE 21:24:18 34° SE
GENESIS II 4.0 21:20:47 23° SSW 21:23:03 83° ESE 21:26:59 10° NE
CZ-2C R/B 3.9 21:19:50 10° N 21:24:37 78° WNW 21:27:46 21° SSW
Cosmos 1733 Rocket 3.1 21:21:54 10° N 21:26:21 66° E 21:27:44 41° SE
Meteor 2-8 Rocket 4.4 21:25:01 24° S 21:28:55 85° E 21:35:03 10° N
Geosat 4.4 21:28:35 30° ESE 21:30:48 52° ENE 21:35:41 10° NNW
SJ 16-02 3.0 21:27:34 10° SW 21:31:31 33° WNW 21:35:30 10° N
SAR-Lupe-4 3.6 21:29:37 10° NNE 21:33:11 57° ESE 21:33:21 56° ESE
Iridium 45 4.4 21:33:06 54° SSW 21:33:48 80° W 21:37:18 10° N
Cosmos 1356 4.4 21:35:10 31° ENE 21:35:10 31° ENE 21:37:36 10° NNE
Cosmos 2292 Rocket 3.8 21:35:06 10° NNW 21:37:51 34° W 21:38:15 32° WSW
Cosmos 1862 Rocket 3.5 21:37:31 44° S 21:38:52 77° E 21:43:22 10° NNE
Cosmos 2360 Rocket 2.7 21:40:42 35° SE 21:41:43 38° ESE 21:46:54 10° NE
BREEZE M DEB (TANK) 4.4 21:38:28 10° WNW 21:43:24 66° SSW 21:55:47 21° SE
Meteor 2-15 4.4 21:41:00 25° SSW 21:44:42 80° W 21:50:48 10° N
Cosmos 1726 3.8 21:42:12 10° NNE 21:45:07 22° ENE 21:45:09 22° ENE
Meteor 1-13 Rocket 4.4 21:44:30 39° SE 21:46:12 52° E 21:51:34 10° NNE
Cosmos 2263 Rocket 3.0 21:41:33 10° NW 21:46:45 41° WSW 21:49:11 27° SSW
NOSS 2-1 (C) 3.6 21:46:44 24° WSW 21:48:26 50° NW 21:51:36 10° NNE
SPOT 5 4.1 21:45:43 21° SSW 21:48:37 37° W 21:53:24 10° NNW
Cosmos 2266 Rocket 4.5 21:43:05 10° N 21:49:04 46° ENE 21:51:20 33° SE
Terra 2.4 21:47:57 31° SSW 21:49:50 48° W 21:54:28 10° NNW
Cosmos 1441 Rocket 2.9 21:51:04 76° S 21:51:20 85° E 21:55:04 10° NNE
Cosmos 1346 Rocket 3.6 21:50:23 29° SW 21:52:02 48° WNW 21:55:57 10° N
SAR-Lupe-1 4.3 21:50:37 10° N 21:54:12 65° WNW 21:54:47 54° SW
Cosmos 2279 Rocket 4.0 21:53:29 31° SSW 21:56:42 84° W 22:02:58 10° N
NOSS 2-1 (D) 4.1 21:56:58 19° WSW 21:58:56 38° NW 22:01:59 10° NNE
Cosmos 990 Rocket 3.9 21:57:54 42° S 21:59:42 79° ESE 22:04:57 10° NNE
USA 215 3.4 21:55:01 10° ENE 22:01:20 49° SE 22:03:42 35° S
MINOTAUR IV R/B 4.5 22:00:17 51° SSW 22:01:22 89° ESE 22:05:54 10° NNE
Cosmos 1680 Rocket 4.0 21:56:40 10° NNW 22:01:51 51° ENE 22:03:25 38° ESE
Iridium 2 3.7 22:00:24 10° N 22:04:08 66° W 22:04:23 64° WSW
Meteor 1-12 Rocket 4.4 22:01:08 10° N 22:07:04 68° ENE 22:08:54 44° SE
Cosmos 1066 Rocket 4.2 22:05:06 39° S 22:07:22 89° W 22:13:04 10° N
ADEOS Rocket 4.4 22:05:31 18° E 22:08:12 25° ENE 22:12:55 10° N
Cosmos 1818 4.2 22:04:40 10° NNW 22:10:00 50° NE 22:12:08 32° ESE
Iridium 4 Rocket 3.5 22:08:26 10° N 22:13:00 57° E 22:13:44 51° ESE
Cosmos 1898 Rocket 3.5 22:11:50 52° SSE 22:13:02 70° ESE 22:18:21 10° NNE
ISS -1.8 22:12:48 10° WNW 22:14:21 22° W 22:14:21 22° W
Cosmos 1900 4.3 22:15:19 57° SSE 22:15:52 61° ESE 22:20:56 10° NE
Okean 1-7 2.9 22:17:25 69° SE 22:17:42 73° E 22:22:04 10° NNE
Iridium 51 4.2 22:21:01 66° NNW 22:21:01 66° NNW 22:24:10 10° N
Cosmos 2322 Rocket 2.4 22:18:01 27° SW 22:21:07 68° WNW 22:26:43 10° NNE
Okean 3 3.5 22:25:02 65° E 22:25:02 65° E 22:29:11 10° NNE
Cosmos 2322 4.4 22:25:29 35° ESE 22:25:44 36° ESE 22:30:54 10° NE
Cosmos 2333 Rocket 2.4 22:25:18 47° SE 22:25:56 49° ESE 22:31:22 10° NE
Cosmos 1844 Rocket 2.6 22:20:59 10° NNW 22:26:36 89° ENE 22:27:56 54° SSE
Cosmos 1805 3.8 22:24:39 10° NNW 22:28:25 47° W 22:28:28 47° W
ARIANE 5 R/B 4.4 22:31:11 19° WSW 22:32:21 21° W 22:35:47 10° NW
BREEZE-M DEB (TANK) 3.1 22:29:50 10° WNW 22:31:52 43° WSW 22:31:52 43° WSW
H-2A R/B 3.9 22:28:46 10° NNE 22:32:20 47° ENE 22:32:20 47° ENE
ATLAS 2AS CENTAUR R/B 4.4 22:26:15 10° WSW 22:33:16 36° NW 22:40:04 10° NNE
Meteor 1-23 Rocket 4.2 22:34:01 52° S 22:35:29 79° E 22:41:20 10° NNE
USA 267 4.0 22:30:10 10° E 22:36:25 49° NNE 22:42:40 10° NW
ATLAS CENTAUR R/B 2.0 22:32:09 10° NNW 22:36:58 59° NE 22:37:50 50° E
Cosmos 1733 4.5 22:38:06 10° NNW 22:41:23 31° W 22:41:23 31° W
Cosmos 1766 3.5 22:39:43 10° NNW 22:43:23 61° WNW 22:43:23 61° WNW
Cosmos 2219 Rocket 2.3 22:44:47 51° SE 22:45:16 53° ESE 22:50:42 10° NE
Cosmos 1703 Rocket 3.9 22:48:16 53° WSW 22:48:45 56° W 22:53:09 10° N
Cosmos 1844 3.7 22:44:31 10° NNW 22:50:20 72° WSW 22:51:27 57° S
Cosmos 372 Rocket 3.8 22:51:17 68° SSE 22:51:51 78° ESE 22:57:02 10° NNE
ATLAS 3B R/B 3.6 22:51:57 10° NW 22:58:43 39° WSW 23:00:38 34° SW
Cosmos 1707 3.4 23:00:36 47° NE 23:00:36 47° NE 23:03:42 10° NNE
SL-16 R/B 4.0 22:56:13 10° WSW 23:00:59 27° NW 23:05:48 10° N
Cosmos 1655 Rocket 4.4 22:56:22 10° NNW 23:02:22 52° W 23:04:10 40° SW
Cosmos 1782 Rocket 3.8 23:00:35 10° NNW 23:04:50 58° W 23:04:50 58° W
Okean 2 4.3 23:06:39 40° ENE 23:06:39 40° ENE 23:09:59 10° NNE
ERS-2 2.7 23:04:01 10° NNE 23:06:52 54° NNE 23:06:52 54° NNE
USA 290 4.5 23:10:46 20° NE 23:10:46 20° NE 23:12:02 10° NE
CZ-4C R/B 3.2 23:01:58 10° NNW 23:09:10 67° NE 23:14:17 26° SE
NOSS 3-1 (C) 4.1 23:02:21 10° NW 23:09:55 87° NE 23:14:03 36° SE
Cosmos 1238 Rocket 4.5 23:10:28 10° NNE 23:11:57 20° NE 23:11:57 20° NE
Cosmos 2237 Rocket 3.6 23:14:56 24° ESE 23:15:08 24° ESE 23:19:36 10° NE
COSMOS 2428 2.6 23:17:53 62° SSE 23:18:38 70° ESE 23:24:18 10° NNE
Cosmos 1470 3.3 23:15:50 10° NNW 23:19:01 51° NW 23:19:01 51° NW
Cosmos 1726 4.0 23:17:03 10° NW 23:19:26 23° WNW 23:19:26 23° WNW
Cosmos 1300 Rocket 3.6 23:16:41 10° NNW 23:20:51 73° WNW 23:20:51 73° WNW
ALOS 2 2.9 23:22:00 56° W 23:22:00 56° W 23:26:10 10° NNW
Cosmos 2151 Rocket 4.0 23:19:34 10° N 23:23:53 53° ENE 23:23:57 53° E
PSLV R/B 4.1 23:19:36 10° NNE 23:23:40 48° E 23:23:40 48° E
Cosmos 1937 Rocket 4.5 23:22:46 30° WSW 23:24:40 40° WNW 23:29:39 10° N
Cosmos 2360 Rocket 3.5 23:22:25 19° WSW 23:25:44 35° NW 23:30:54 10° N
Cosmos 1242 Rocket 3.4 23:23:22 10° N 23:26:07 48° N 23:26:07 48° N
Cosmos 405 Rocket 4.0 23:28:20 31° ENE 23:28:20 31° ENE 23:30:59 10° NNE
Okean 2 Rocket 3.2 23:23:28 10° N 23:28:00 68° E 23:28:05 68° E
In-Cosmos 22 4.0 23:29:31 64° S 23:30:25 89° E 23:35:57 10° N
Cosmos 1437 Rocket 4.0 23:30:24 10° N 23:33:33 31° ENE 23:33:33 31° ENE
Cosmos 1867 3.5 23:33:44 64° SW 23:34:37 90° W 23:40:08 10° NE
Cosmos 2298 Rocket 4.5 23:34:33 45° ESE 23:34:51 45° ESE 23:39:53 10° NNE
Nimbus 7 Rocket 4.4 23:29:12 10° NNE 23:35:04 71° ESE 23:36:12 57° SSE
Cosmos 1908 3.9 23:31:38 10° N 23:34:48 50° NE 23:34:48 50° NE
Meteor 1-21 4.3 23:34:35 57° SSW 23:35:48 79° W 23:41:39 10° N
Cosmos 1626 2.9 23:37:36 49° NNE 23:37:36 49° NNE 23:40:25 10° NNE
SL-08 R/B 4.4 23:33:31 10° N 23:39:50 86° E 23:41:27 54° SSE
USA 215 3.7 23:38:01 10° NE 23:44:26 59° NNW 23:50:50 10° WSW
Cosmos 1953 3.2 23:41:02 10° N 23:44:46 41° ENE 23:44:46 41° ENE
Cosmos 2278 Rocket 2.6 23:41:10 10° NNW 23:46:47 57° ENE 23:48:50 37° ESE
Cosmos 1674 3.3 23:50:45 51° NNW 23:50:45 51° NNW 23:53:50 10° N
ADEOS Rocket 3.0 23:52:27 49° SW 23:53:18 53° W 23:59:08 10° NNW
Sich 1 Rocket 4.1 23:49:58 10° NNW 23:54:00 48° W 23:54:00 48° W
